This demonstration page uses our WeatherBlox Daily Observations layout. Learn more.

Left ArrowRight Arrow

Hourly Observations for April 26, 2018

Temp ( °F °C ) Dew Point ( °F °C ) Humidity (%) Winds ( mph kmh ) Pressure ( in mb ) Visibility ( mi km ) Precip ( " mm )
12:56 am 00:56 Clear 43 6.1 35 1.7 74 74 SSW 10 17 30.00 1016 10 16 0.00 0.00
1:56 am 01:56 Clear 41 5 36 2.2 82 82 SSW 10 17 29.99 1016 10 16 0.00 0.00
2:56 am 02:56 Clear 41 5 36 2.2 82 82 SSW 12 19 29.98 1015 10 16 0.00 0.00
3:56 am 03:56 Clear 41 5 36 2.2 82 82 SSW 12 19 29.96 1015 10 16 0.00 0.00
4:56 am 04:56 Clear 40 4.4 36 2.2 86 86 W 3 6 30.00 1016 10 16 0.00 0.00
5:56 am 05:56 Clear 35 1.7 33 0.6 93 93 SSW 8 13 29.96 1015 10 16 0.00 0.00
6:56 am 06:56 Sunny 38 3.3 35 1.7 89 89 SSW 5 7 29.95 1014 10 16 0.00 0.00
7:56 am 07:56 Sunny 40 4.4 36 2.2 86 86 NNW 3 6 29.99 1016 10 16 0.00 0.00
8:56 am 08:56 Sunny 44 6.7 37 2.8 76 76 WSW 5 7 29.99 1016 10 16 0.00 0.00
9:56 am 09:56 Sunny 53 11.7 39 3.9 59 59 NNW 15 24 30.00 1016 10 16 0.00 0.00
10:56 am 10:56 Sunny 59 15 39 3.9 48 48 N 25 41 30.03 1017 10 16 0.00 0.00
11:56 am 11:56 Sunny 57 13.9 37 2.8 47 47 N 29 46 30.06 1018 10 16 0.00 0.00
12:56 pm 12:56 Sunny 58 14.4 37 2.8 46 46 N 33 54 30.06 1018 10 16 0.00 0.00
1:56 pm 13:56 Sunny 61 16.1 35 1.7 38 38 N 33 54 30.06 1018 10 16 0.00 0.00
2:56 pm 14:56 Sunny 63 17.2 30 -1.1 29 29 N 32 52 30.07 1018 10 16 0.00 0.00
3:56 pm 15:56 Sunny 63 17.2 27 -2.8 26 26 N 28 44 30.08 1019 10 16 0.00 0.00
4:56 pm 16:56 Sunny 63 17.2 29 -1.7 28 28 N 25 41 30.09 1019 10 16 0.00 0.00
5:56 pm 17:56 Sunny 62 16.7 28 -2.2 28 28 N 23 37 30.11 1020 10 16 0.00 0.00
6:56 pm 18:56 Sunny 60 15.6 29 -1.7 31 31 N 18 30 30.11 1020 10 16 0.00 0.00
7:56 pm 19:56 Sunny 57 13.9 28 -2.2 33 33 N 13 20 30.12 1020 10 16 0.00 0.00
8:56 pm 20:56 Clear 52 11.1 28 -2.2 40 40 N 5 7 30.13 1020 10 16 0.00 0.00
9:56 pm 21:56 Clear 49 9.4 29 -1.7 46 46 WNW 5 7 30.14 1021 10 16 0.00 0.00
10:56 pm 22:56 Clear 47 8.3 30 -1.1 52 52 WNW 6 9 30.13 1020 10 16 0.00 0.00
11:56 pm 23:56 Clear 44 6.7 30 -1.1 58 58 W 3 6 30.13 1020 10 16 0.00 0.00

Powered by AerisWeather